TimeEDT,TemperatureF,Dew PointF,Humidity,Sea Level PressureIn,VisibilityMPH,Wind Direction,Wind SpeedMPH,Gust SpeedMPH,PrecipitationIn,Events,Conditions,WindDirDegrees,DateUTC
12:56 AM,53.1,48.0,83,30.37,10.0,Calm,Calm,-,N/A,,Mostly Cloudy,0,2013-10-14 04:56:00
1:56 AM,52.0,48.0,86,30.36,10.0,Calm,Calm,-,N/A,,Mostly Cloudy,0,2013-10-14 05:56:00
2:56 AM,51.1,46.9,86,30.35,10.0,Calm,Calm,-,N/A,,Mostly Cloudy,0,2013-10-14 06:56:00
3:56 AM,52.0,46.9,83,30.35,10.0,ENE,3.5,-,N/A,,Mostly Cloudy,60,2013-10-14 07:56:00
4:56 AM,51.1,46.0,83,30.35,10.0,NE,4.6,-,N/A,,Overcast,40,2013-10-14 08:56:00
5:56 AM,50.0,45.0,83,30.35,10.0,ENE,4.6,-,N/A,,Mostly Cloudy,60,2013-10-14 09:56:00
6:56 AM,50.0,44.1,80,30.36,10.0,Calm,Calm,-,N/A,,Mostly Cloudy,0,2013-10-14 10:56:00
7:56 AM,50.0,44.1,80,30.36,10.0,NNW,3.5,-,N/A,,Scattered Clouds,340,2013-10-14 11:56:00
8:56 AM,53.1,44.1,71,30.37,10.0,Calm,Calm,-,N/A,,Scattered Clouds,0,2013-10-14 12:56:00
9:56 AM,55.9,44.1,64,30.37,10.0,Calm,Calm,-,N/A,,Scattered Clouds,0,2013-10-14 13:56:00
10:56 AM,57.9,45.0,62,30.35,10.0,ESE,4.6,-,N/A,,Scattered Clouds,110,2013-10-14 14:56:00
11:56 AM,62.1,46.9,58,30.32,10.0,North,4.6,-,N/A,,Partly Cloudy,10,2013-10-14 15:56:00
12:56 PM,61.0,46.0,58,30.30,10.0,South,4.6,-,N/A,,Clear,170,2013-10-14 16:56:00
1:56 PM,62.1,46.9,58,30.28,10.0,SSE,6.9,-,N/A,,Clear,150,2013-10-14 17:56:00
2:56 PM,62.1,48.9,62,30.27,10.0,SE,6.9,-,N/A,,Clear,130,2013-10-14 18:56:00
3:56 PM,61.0,48.9,64,30.26,10.0,SE,6.9,-,N/A,,Clear,130,2013-10-14 19:56:00
4:56 PM,61.0,46.9,60,30.26,10.0,SSE,6.9,-,N/A,,Clear,160,2013-10-14 20:56:00
5:56 PM,57.9,46.0,65,30.27,10.0,SE,3.5,-,N/A,,Clear,140,2013-10-14 21:56:00
6:56 PM,55.0,46.9,74,30.28,10.0,Calm,Calm,-,N/A,,Clear,0,2013-10-14 22:56:00
7:56 PM,54.0,46.9,77,30.28,10.0,Calm,Calm,-,N/A,,Clear,0,2013-10-14 23:56:00
8:56 PM,52.0,48.0,86,30.28,10.0,Calm,Calm,-,N/A,,Clear,0,2013-10-15 00:56:00
9:56 PM,51.1,48.0,89,30.27,10.0,Calm,Calm,-,N/A,,Clear,0,2013-10-15 01:56:00
10:56 PM,50.0,46.9,89,30.28,10.0,NNW,4.6,-,N/A,,Clear,330,2013-10-15 02:56:00
11:56 PM,52.0,48.9,89,30.27,10.0,Calm,Calm,-,N/A,,Clear,0,2013-10-15 03:56:00